SCP
0 0 0 0 0 0 0 0 0 0 0 0 0 0 0 0 0 0 0 0 0 0 0 0 0 0 0 0 0 0 0 0 0 0 0 0 0 0 0 0 0 0 0
1 1 0 0 0 0 0 0 0 0 0 0 0 0 0 0 0 0 0 0 0 0 0 0 0 0 0 0 0 0 0 0 0 0 0 0 0 0 0 0 0 0 0
1 1 1 0 0 0 0 0 0 0 0 0 0 0 0 0 0 0 0 0 0 0 0 0 0 0 0 0 0 0 0 0 0 0 0 0 0 0 0 0 0 0 0
1 1 1 1 0 0 0 0 0 0 0 0 0 0 0 0 0 0 0 0 0 0 0 0 0 0 0 0 0 0 0 0 0 0 0 0 0 0 0 0 0 0 0
1 1 1 1 1 0 0 0 0 0 0 0 0 0 0 0 0 0 0 0 0 0 0 0 0 0 0 0 0 0 0 0 0 0 0 0 0 0 0 0 0 0 0
1 1 0 1 1 0 0 0 0 0 0 0 0 0 0 0 0 0 0 0 0 0 0 0 0 0 0 0 0 0 0 0 0 0 0 0 0 0 0 0 0 0 0
1 1 0 0 1 1 0 0 0 0 0 0 0 0 0 0 0 0 0 0 0 0 0 0 0 0 0 0 0 0 0 0 0 0 0 0 0 0 0 0 0 0 0
1 1 0 0 1 1 0 0 0 0 0 0 0 0 0 0 0 0 0 0 0 0 0 0 0 0 0 0 0 0 0 0 0 0 0 0 0 0 0 0 0 0 0
1 1 1 1 1 1 1 0 0 0 0 0 0 0 0 0 0 0 0 0 0 0 0 0 0 0 0 0 0 0 0 0 0 0 0 0 0 0 0 0 0 0 0
1 1 1 1 1 1 1 0 0 0 0 0 0 0 0 0 0 0 0 0 0 0 0 0 0 0 0 0 0 0 0 0 0 0 0 0 0 0 0 0 0 0 0
1 1 1 1 1 1 1 0 0 0 0 0 0 0 0 1 1 0 0 0 0 0 0 0 0 0 0 0 0 0 0 0 0 0 0 0 0 0 0 0 0 0 0
1 1 1 1 1 1 1 1 1 0 0 0 1 1 1 1 1 1 0 0 0 0 0 0 0 0 0 0 0 0 0 0 0 0 0 0 0 0 0 0 0 0 0
1 1 1 1 1 1 1 1 1 1 1 1 1 1 1 1 1 1 0 0 0 0 0 0 0 0 0 0 0 0 0 0 0 0 0 0 0 0 0 0 0 0 0
1 1 1 1 1 1 1 1 1 1 1 1 1 1 1 1 1 1 0 0 0 0 0 0 0 0 0 0 0 0 0 0 0 0 0 0 0 0 0 0 0 0 0
1 1 1 1 1 1 1 1 1 1 1 1 1 1 1 1 1 1 0 0 0 0 0 0 0 0 0 0 0 0 0 0 0 0 0 0 0 0 0 0 0 0 0
1 1 1 1 1 1 1 1 1 1 1 1 1 1 1 1 1 1 0 0 0 0 0 0 0 0 0 0 0 0 0 0 0 0 0 0 0 0 0 0 0 0 0
1 1 1 1 1 1 1 1 1 1 1 1 1 1 1 1 1 1 1 1 0 0 0 0 0 0 0 0 0 0 0 0 0 0 0 0 0 0 0 0 0 0 0
2 1 1 1 1 1 1 1 1 1 1 1 1 1 1 1 0 0 1 1 0 0 0 0 0 0 0 1 1 0 0 0 0 0 0 0 0 0 0 0 0 0 0
2 2 2 1 1 1 1 1 1 1 1 1 1 1 1 0 0 0 0 0 0 0 0 0 0 0 0 1 1 1 0 0 0 0 0 0 0 0 0 0 0 0 0
2 2 1 1 1 1 1 1 1 1 1 1 1 0 0 0 0 0 0 0 0 0 0 0 0 0 0 1 1 1 1 1 1 1 0 0 0 0 0 0 0 0 0
1 1 1 1 1 1 1 1 1 1 1 0 0 0 0 0 0 0 0 0 0 0 0 0 0 0 0 1 1 1 1 1 1 1 1 0 0 0 0 0 0 0 0
1 1 1 1 1 1 0 0 0 0 0 0 0 0 0 0 0 0 0 0 0 0 0 0 0 0 0 1 1 1 1 1 1 1 1 1 0 0 0 0 0 0 0
1 1 1 1 1 0 0 0 0 0 0 0 0 0 0 0 1 0 0 0 0 0 0 0 0 0 0 1 1 1 1 0 1 1 1 1 1 0 0 0 0 0 0
1 1 1 1 1 0 0 0 0 0 0 0 0 0 0 0 0 0 0 0 0 0 0 0 0 0 0 0 0 0 0 0 0 1 1 1 1 0 0 0 0 0 0
1 1 1 1 1 0 0 0 0 0 0 0 0 0 0 0 0 0 0 0 0 0 0 0 0 0 0 0 0 0 0 0 0 0 1 1 0 0 0 0 0 0 0
1 1 1 1 1 0 0 0 0 0 0 0 0 0 0 0 0 0 0 0 0 0 0 0 0 0 0 0 0 0 0 0 0 0 1 1 0 0 0 0 0 0 0
Wind_Speed
2 2 2 2 1 1 2 1 1 1 0 0 1 1 1 2 2 3 4 8 9 8 8 8 7 7 7 6 6 6 6 6 8 9 8 8 8 8 9 9 9 9 9
2 2 2 2 2 1 2 1 1 1 1 1 1 1 1 1 2 3 4 6 9 9 9 8 7 7 7 7 6 6 6 6 6 7 8 8 9 9 9 9 9 9 8
3 2 1 1 1 1 1 1 1 0 0 1 1 1 1 1 2 2 3 4 5 8 10 8 8 7 7 7 6 6 5 5 6 6 7 8 8 8 9 9 9 9 9
2 1 1 1 1 1 0 0 0 0 1 1 1 0 1 2 1 2 2 3 4 5 8 10 9 7 6 7 7 7 6 6 7 6 6 6 7 8 8 8 9 9 9
2 1 1 1 1 1 1 1 1 1 0 1 1 1 0 1 2 2 3 3 3 4 5 8 10 8 8 7 7 7 7 7 7 7 7 7 7 7 8 8 8 8 8
2 2 1 1 1 2 2 2 2 1 0 1 1 1 0 0 1 1 1 2 3 4 4 5 5 6 8 7 6 6 7 7 7 7 7 7 7 6 7 8 8 9 9
2 1 2 1 1 2 1 1 1 1 1 1 0 1 1 0 1 1 1 1 2 3 3 5 4 3 3 5 4 4 5 7 7 7 7 7 7 7 7 7 7 8 9
1 1 2 2 2 1 1 1 1 1 1 0 0 0 1 0 1 2 2 1 1 2 3 4 4 3 2 3 2 4 4 5 7 7 7 7 7 7 7 7 8 8 8
1 1 1 1 1 1 1 1 1 1 2 1 0 0 0 1 1 1 0 1 2 1 1 2 3 3 3 3 3 4 5 4 5 5 7 7 7 7 7 7 8 8 8
1 1 1 0 1 1 1 1 1 2 2 2 1 0 1 1 1 1 1 1 2 2 1 1 2 3 3 3 4 5 5 4 4 4 4 6 6 7 7 7 7 7 7
1 0 1 0 0 0 0 1 1 2 2 2 2 1 1 1 1 1 1 1 0 1 2 2 1 2 3 3 3 5 7 5 4 3 4 4 5 6 7 8 8 8 8
1 1 1 1 1 1 1 1 1 2 2 2 2 2 2 1 1 1 1 1 0 0 2 1 1 1 2 2 3 7 8 6 4 3 3 3 4 5 6 8 8 8 8
0 1 1 1 1 1 1 1 0 1 2 2 1 2 2 2 1 1 1 1 1 1 1 1 1 1 1 2 3 6 6 6 5 4 3 3 3 4 5 6 7 7 7
1 1 1 1 1 1 1 1 1 1 1 2 2 2 2 2 2 1 1 1 2 1 0 0 1 1 1 2 3 5 4 6 6 5 4 4 3 3 4 5 5 6 6
1 1 1 1 1 1 2 2 1 2 1 2 2 2 2 2 2 2 1 1 1 2 1 1 0 1 1 2 4 3 3 5 6 6 6 5 4 3 2 3 4 4 5
2 2 1 1 1 1 1 1 1 1 1 1 1 2 3 3 3 2 2 1 1 1 1 1 1 0 1 0 3 2 2 6 7 7 6 6 5 5 4 3 3 4 4
1 1 1 1 1 1 1 1 1 1 1 1 2 1 2 3 3 3 3 2 2 1 1 2 1 1 0 0 1 2 2 3 4 7 8 7 6 6 5 4 4 4 4
1 1 1 1 1 1 1 1 2 2 2 2 2 2 2 2 3 3 3 3 2 1 1 3 2 1 1 0 1 2 2 2 1 5 8 8 8 7 6 6 5 5 4
1 1 1 1 1 1 1 1 2 2 2 2 2 2 2 2 2 2 2 3 3 3 2 2 2 1 1 1 1 2 2 2 3 3 7 8 8 8 7 7 6 5 5
2 2 2 1 1 1 2 2 2 2 2 2 1 1 2 2 2 3 2 2 2 3 2 2 2 2 1 1 1 1 2 2 2 2 2 4 5 8 8 7 7 7 7
2 2 1 1 1 1 2 2 2 1 1 1 2 2 1 1 2 2 3 2 3 2 2 2 2 2 2 1 1 2 2 2 2 2 1 1 1 2 3 6 7 7 7
2 2 2 2 2 2 4 5 3 3 2 1 2 3 2 1 1 2 3 4 3 3 3 2 3 3 3 2 2 2 2 2 2 1 1 2 2 2 2 3 5 6 7
2 2 2 2 1 2 3 3 4 3 2 2 2 3 4 3 2 2 3 4 4 5 4 4 4 4 4 3 3 3 3 3 4 3 2 3 2 2 2 2 4 5 6
1 2 2 1 1 1 2 2 4 3 2 2 2 3 2 3 4 3 3 3 3 3 4 4 3 4 4 4 4 4 4 5 4 3 2 3 2 2 1 1 2 3 4
2 1 1 1 1 1 2 2 3 2 2 2 1 2 2 2 4 4 3 3 4 4 5 5 5 6 7 7 5 3 4 4 4 3 1 2 2 2 2 2 1 3 4
2 2 2 1 1 1 1 2 3 2 2 2 1 1 3 3 4 4 3 4 4 5 5 5 5 4 5 5 6 5 4 4 3 2 1 1 1 1 1 1 0 1 2
Wind_Direction
61 50 56 45 38 72 102 99 101 89 92 221 191 144 123 126 140 142 152 165 170 176 181 186 191 190 192 200 204 208 221 212 198 188 194 202 203 203 206 206 205 203 199
75 56 65 48 39 38 52 77 113 137 162 179 173 138 139 163 146 160 160 173 183 184 188 193 195 192 194 198 203 205 214 207 196 194 198 203 206 208 209 209 206 204 203
62 56 57 67 49 47 37 50 31 63 155 176 168 168 164 152 151 158 167 170 178 188 191 191 191 191 194 197 198 196 198 196 199 205 207 206 207 208 212 214 211 208 207
59 52 60 60 72 89 96 100 107 57 30 360 57 308 154 145 159 162 174 174 170 173 186 192 192 192 199 201 203 202 201 202 202 198 200 204 209 212 213 215 213 210 209
56 43 63 50 41 70 43 1 59 73 96 342 291 224 215 156 164 188 176 165 161 160 163 185 191 192 203 208 209 207 204 201 195 196 198 203 209 211 212 211 212 210 210
58 41 73 55 35 67 43 25 10 353 348 250 283 44 290 134 159 133 162 156 156 170 170 162 180 198 209 214 210 205 199 196 197 198 198 199 205 209 213 213 212 211 211
59 52 36 39 43 71 63 32 13 323 291 302 343 331 287 175 114 132 142 119 147 148 143 144 164 180 184 195 199 189 193 196 196 196 199 205 210 214 217 218 217 214 213
63 77 57 17 31 39 50 27 355 324 307 358 300 296 320 358 304 202 156 168 140 138 140 157 163 167 161 157 164 165 164 179 192 197 202 209 215 219 218 220 220 216 212
83 56 71 44 5 32 45 325 326 338 327 316 54 90 357 328 296 276 187 144 139 127 137 140 150 153 159 136 143 158 164 173 186 197 209 213 218 223 222 222 222 219 216
103 103 102 82 335 20 30 321 21 332 319 323 316 293 153 147 264 300 304 200 165 148 132 122 135 142 141 137 130 142 158 169 183 206 219 220 220 223 222 222 222 223 222
109 135 132 102 42 16 25 353 355 337 342 343 337 333 329 275 256 233 265 291 283 136 147 156 169 145 140 134 142 144 155 164 174 201 223 229 233 232 226 225 225 225 224
139 125 98 82 64 16 18 353 343 334 337 348 342 345 348 332 323 315 299 294 279 185 144 143 157 144 150 150 151 139 154 163 171 189 214 232 245 244 234 230 228 227 228
72 76 52 66 38 20 355 347 312 327 340 341 331 327 323 322 321 333 334 320 315 279 159 160 145 128 136 122 128 145 159 167 177 191 207 227 241 246 239 233 232 231 232
39 70 88 83 55 7 351 16 349 338 348 335 329 329 313 322 319 339 330 326 322 320 21 120 119 121 143 131 141 169 172 175 183 190 204 220 226 236 237 227 228 229 235
22 66 80 73 43 13 2 23 5 356 4 339 334 335 327 322 323 329 321 332 313 305 310 329 339 159 166 128 153 177 166 187 190 193 203 211 213 220 232 226 228 231 236
28 37 26 45 48 12 8 359 357 353 341 333 321 344 340 344 338 336 330 318 292 271 285 298 304 40 51 310 156 203 185 187 197 201 203 204 207 213 216 223 231 234 238
24 10 358 1 27 37 12 349 338 351 330 323 325 4 354 353 347 344 342 329 316 321 297 299 305 334 217 253 218 245 232 206 201 198 199 203 207 212 214 220 229 236 239
33 10 359 350 358 43 34 6 334 336 329 335 340 5 355 355 351 342 339 332 326 315 287 289 295 288 281 274 233 256 269 256 215 193 199 203 205 209 213 217 226 233 237
17 9 3 2 351 18 14 351 328 321 326 335 344 3 353 351 340 337 335 332 325 325 303 288 287 297 291 320 340 288 293 293 279 213 198 205 210 212 215 217 219 224 233
31 14 355 352 2 32 355 337 318 307 326 330 347 352 333 333 339 329 325 335 327 326 315 300 297 297 292 321 321 290 291 291 291 300 228 207 210 215 219 216 217 224 230
27 19 344 348 337 7 350 341 313 308 304 302 322 321 325 30 37 347 336 336 331 324 317 311 302 304 312 336 322 298 298 301 290 284 283 262 216 216 218 224 226 230 229
21 5 339 349 350 351 12 24 8 328 323 321 319 313 305 322 351 325 313 310 308 301 310 305 303 303 303 308 306 300 296 302 297 291 283 272 238 220 226 216 219 216 217
10 348 345 357 23 7 11 10 351 325 335 339 328 320 318 346 11 334 301 285 285 275 262 268 282 286 289 298 302 298 297 292 283 284 290 276 251 234 234 241 205 204 207
350 344 330 328 330 350 14 354 328 296 304 314 317 316 320 332 338 335 305 305 300 295 273 253 256 266 279 287 284 274 275 278 273 275 263 264 265 254 252 202 192 195 205
330 309 314 349 323 331 358 347 313 281 281 287 304 335 324 332 346 339 314 305 307 305 297 292 270 261 264 273 271 279 276 276 280 275 267 255 270 282 255 219 204 181 175
311 313 330 344 341 8 21 359 323 295 304 310 325 348 18 2 346 344 323 308 302 304 308 305 299 279 267 266 259 243 255 267 278 281 275 270 268 290 300 263 168 188 183